星链-3180 (STARLINK-3180 )

导读 | 豆包AI

STARLINK-3180是美国太空探索技术公司(SpaceX)星链互联网星座的成员,于2022年1月19日发射入轨。星链计划旨在构建全球卫星互联网,STARLINK-3180承担着为全球偏远地区提供高速低延迟网络接入的任务,进一步扩充了星链星座的覆盖范围与服务能力。

基本信息
目录编号:
51137
目录名称:
STARLINK-3180
国际标识:
2022-005AK
轨道中心:
EARTH
卫星名称:
星链-3180
卫星全名:
星链-3180 (STARLINK-3180 )
卫星状态:
在轨 (已飞行1515 天)
发射日期:
2022-01-19 UTC
国别 :
美国 (US)
星等 :
--
轨道信息
数据来源 国际轨道数据 AOE轨道数据
星历时间 2026-03-14T14:53:25+0800
13小时前
查看轨道信息
2026-03-14T16:00:00+0800
11小时前
查看轨道信息
半长轴 6917.882km 6917.877km
偏心率 0.0001322 0.0001392
轨道倾角 53.217° 53.215°
近地点辐角 86.988° 84.788°
升交点赤经 278.482° 278.274°
平近点角 273.127° 166.636°
近地点 538.83km 538.777km
远地点 540.66km 540.703km
周期 95.438分钟 95.437分钟
每日圈数 15.088398 15.088412
详细信息
固有亮度:
5
最大亮度:
2.5
卫星平台:
Starlink v1.5
覆盖范围:
全球
运营商:
太空探索技术公司
运营商所在国:
美国
制造商(研发单位):
太空探索技术公司
制造商所在国:
美国
使用方式:
暂无
卫星简介
星链(Starlink)计划是由太空探索技术公司(SpaceX)提出的一个巨型低轨卫星互联网星座项目,计划在2019年至2024年间在太空搭建由约1.2万颗卫星组成的“星链”网络,其中1584颗将部署在地球上空550千米处的近地轨道,并从2020年开始工作。该卫星仍在工作。
2D轨道图
3D轨道图
轨道高度分析图
轨道倾角分析图
轨道综合分析图
查看轨道综合分析图